Location: *
(38.4303°S, 157.0822°W)
Time: 13:51:44
(UTC+00:00)

Cosmos 1570 Rocket - Pass Details

Date: 21 May 2024
Orbit: 761 x 786 km, 74.1° (Epoch: 22 June)

Event Time Altitude Azimuth Distance (km) Brightness Sun altitude
Rises 16:10:21 0° 333° (NNW) 3,270 7.1 -15.3°
Reaches altitude 10° 16:12:46 10° 328° (NNW) 2,349 6.3 -14.8°
Maximum altitude 16:18:02 58° 249° (WSW) 920 4.1 -13.8°
Drops below altitude 10° 16:23:21 10° 170° (S) 2,369 6.5 -12.8°
Sets 16:25:49 0° 165° (SSE) 3,301 7.3 -12.4°
